Theta_e
311 310 312 313 314 314 315 318 324 329 328 330 330 329 330 327 327 329 326 324 323 322 326 330 329 330 329 330 335 339 340 344 349 358 360 360 359 357 355 354 355 353 354 352
312 311 313 315 316 316 314 320 326 326 327 330 330 330 327 327 322 326 325 324 322 321 325 326 333 333 333 331 331 331 329 330 343 359 358 357 354 351 354 353 351 353 352 353
313 314 315 315 315 316 315 321 324 326 327 325 323 324 320 319 319 319 324 324 323 323 323 330 331 334 334 335 333 332 334 337 335 335 350 348 351 351 349 352 353 352 353 351
313 314 313 314 315 314 314 316 322 322 322 324 321 318 320 319 318 319 318 324 321 323 326 330 331 334 341 342 341 339 340 343 341 342 339 348 352 351 346 344 350 351 352 350
313 313 313 314 314 315 315 317 319 320 319 320 319 316 316 319 320 318 321 325 322 321 328 331 331 338 342 343 344 344 344 344 345 348 349 349 349 349 350 351 349 351 348 346
312 313 313 313 315 315 316 318 320 319 318 319 317 318 316 321 320 320 320 323 324 325 329 330 334 336 341 340 340 339 338 336 337 339 340 339 343 345 346 343 341 345 346 347
313 314 314 314 313 314 315 320 328 323 317 321 319 320 319 321 320 320 319 325 324 323 325 328 329 329 331 336 334 332 330 330 330 331 332 330 331 333 333 331 332 332 332 336
314 313 314 316 314 313 312 322 326 327 320 318 318 320 320 319 321 320 320 323 322 322 322 326 324 327 328 329 328 328 328 328 328 328 327 325 324 324 324 324 328 328 328 329
315 315 316 316 317 315 315 317 320 324 323 323 326 326 326 321 321 320 324 323 322 322 322 324 324 326 327 327 328 327 326 325 325 324 324 323 323 323 322 322 322 322 323 323
319 319 322 318 317 318 319 317 319 320 324 332 333 333 328 325 325 325 325 323 325 323 323 322 324 326 327 326 325 325 325 324 323 322 320 320 320 319 319 320 320 320 321 321
318 323 322 321 317 317 318 320 323 320 321 336 337 335 330 331 326 326 325 324 323 322 321 321 324 326 326 325 324 323 322 320 321 319 318 318 318 318 318 318 318 318 319 319
320 326 327 323 321 321 318 319 322 328 328 332 334 333 331 331 329 326 325 323 321 321 318 318 320 322 322 322 322 320 319 318 318 317 317 317 317 317 316 316 316 316 317 316
321 325 331 327 323 323 325 321 321 323 329 333 334 336 329 329 329 327 324 324 322 320 320 318 316 318 320 320 319 319 318 318 317 317 316 316 316 316 315 314 314 314 314 314
329 328 327 329 329 328 328 323 325 327 326 329 329 334 333 332 332 328 325 324 324 322 319 318 315 316 318 318 318 318 318 318 317 316 316 316 315 314 314 313 313 312 313 313
324 330 331 332 330 329 329 327 326 326 326 329 330 333 330 328 327 329 326 323 318 317 318 317 316 315 318 318 318 318 317 317 316 315 315 314 313 313 312 312 312 311 311 312
327 330 330 332 328 328 328 327 326 323 324 326 325 328 326 326 325 318 317 318 318 318 318 318 317 315 316 317 317 317 316 314 314 314 314 313 313 312 311 310 310 309 309 310
327 328 329 331 328 325 324 323 324 323 323 322 324 324 321 319 318 318 318 319 319 318 318 317 316 316 316 316 316 315 314 314 313 313 313 312 312 311 310 308 308 307 306 305
325 326 327 329 326 329 321 316 319 320 321 319 318 318 319 320 320 319 318 317 317 317 316 314 314 315 315 314 314 314 313 314 313 313 312 310 309 307 306 305 304 303 302 301
323 327 326 327 328 321 318 323 320 322 323 321 320 319 318 319 318 317 316 314 314 313 313 314 315 315 315 315 314 314 312 312 311 310 308 306 304 303 302 301 300 300 299 299
324 323 325 327 327 325 324 320 318 323 325 321 318 317 316 316 319 317 313 313 313 313 314 313 313 313 313 314 312 311 310 306 304 303 303 302 301 300 299 298 298 297 296 295
328 325 324 324 327 327 323 319 317 323 324 317 316 316 316 316 316 314 313 313 314 314 313 312 311 309 308 306 306 305 302 301 300 300 299 299 298 297 296 296 295 293 293 293
324 324 321 321 324 330 324 324 326 322 317 316 315 314 313 312 311 311 311 310 308 307 307 306 306 306 303 301 301 300 298 298 297 296 295 295 294 294 292 291 291 292 292 293
322 322 322 323 325 321 320 320 316 314 314 314 313 312 311 310 310 308 306 304 304 305 304 303 302 302 300 298 297 296 296 295 294 293 292 292 290 289 290 291 291 292 291 292
323 323 324 322 321 318 317 315 314 314 312 312 310 308 307 306 304 303 303 303 303 303 301 300 298 297 297 295 295 294 293 293 291 290 289 288 288 289 289 288 289 290 290 291
321 321 321 321 318 316 315 314 313 312 310 308 306 305 303 303 303 302 303 301 300 299 298 297 296 295 295 294 293 292 291 290 289 287 287 287 287 287 288 288 289 289 290 291
318 321 321 321 318 315 314 313 312 310 307 305 304 304 303 302 302 302 301 299 298 297 296 296 295 294 293 291 291 289 289 287 286 286 286 286 287 287 288 288 289 289 290 291
Wind_Speed
10 8 16 17 15 11 13 11 13 5 10 6 8 6 12 13 9 12 7 7 8 9 2 11 15 15 16 13 19 28 26 23 36 34 28 24 24 23 23 25 25 26 24 27
6 14 13 15 15 17 18 11 7 8 15 8 17 15 12 14 7 8 8 9 9 8 3 7 15 18 21 14 10 8 4 4 7 18 24 25 23 22 25 27 27 27 25 25
12 10 16 19 19 19 18 13 10 13 14 11 7 14 10 7 8 7 9 10 7 7 6 7 10 17 15 18 15 11 8 4 7 10 10 15 14 16 15 18 30 27 28 28
10 16 18 19 21 17 16 14 16 19 11 7 13 5 8 12 9 10 11 9 9 6 3 8 9 16 22 22 19 15 13 10 6 6 10 7 4 11 16 18 13 15 24 21
11 15 16 16 14 18 17 13 20 25 6 14 12 4 8 11 8 12 11 14 10 7 9 9 9 21 22 21 19 16 15 13 12 12 11 7 5 8 12 12 11 6 13 23
15 13 13 19 19 19 18 8 6 6 8 5 10 10 6 9 17 14 6 7 18 7 12 11 21 26 23 19 18 17 19 21 22 20 17 19 16 14 15 17 16 11 6 6
18 18 17 16 11 8 8 7 5 5 1 4 17 6 9 20 18 20 11 6 10 10 9 10 12 15 21 17 15 16 18 20 19 19 19 19 20 20 20 19 20 20 18 15
11 10 16 14 8 12 8 10 7 6 4 5 6 13 12 13 25 18 12 12 9 9 10 12 10 19 20 16 16 16 15 15 15 17 16 17 17 17 16 15 14 15 15 14
8 11 10 10 7 12 7 5 14 4 4 2 3 8 8 5 18 17 16 11 10 10 10 12 11 21 19 17 14 12 10 10 13 12 14 15 16 18 18 17 16 17 16 15
3 4 5 11 8 11 5 7 5 2 4 2 3 8 2 9 15 16 14 10 7 8 8 8 8 19 22 19 15 13 9 7 7 8 11 12 14 17 18 18 19 20 19 18
5 6 7 10 8 8 5 1 2 4 6 4 1 5 5 7 3 14 10 10 10 9 9 10 14 22 25 22 17 12 7 6 4 7 7 10 12 12 13 16 18 20 22 24
7 5 1 5 3 3 4 9 7 5 4 4 4 5 4 6 11 8 13 11 9 8 8 8 11 19 17 18 16 12 10 6 8 9 11 13 14 15 16 17 18 20 22 24
7 5 4 7 6 4 2 4 4 4 4 6 8 4 3 10 5 9 10 9 6 7 5 7 7 8 14 14 11 11 9 10 11 12 15 17 19 21 23 25 27 27 26 25
8 5 11 4 1 1 5 4 2 6 4 0 5 5 6 6 2 6 1 8 4 4 8 6 7 7 10 12 11 9 7 6 7 10 11 13 16 21 23 25 26 27 27 27
6 4 5 2 2 6 8 10 2 5 6 4 5 8 5 10 4 12 8 10 6 7 6 6 5 6 10 7 6 8 10 8 8 10 13 17 19 22 27 28 27 29 29 27
5 5 10 6 7 5 10 6 5 5 4 7 6 3 5 14 16 7 5 9 7 5 7 8 7 11 12 9 7 8 8 7 9 10 11 14 18 22 27 28 23 22 22 21
5 5 3 3 2 5 4 7 4 5 4 8 2 6 2 8 7 7 12 16 15 14 13 12 9 10 12 11 8 6 5 7 7 9 12 16 18 20 20 17 19 20 24 27
6 5 3 3 4 3 4 6 2 5 9 6 11 10 12 16 16 17 15 14 13 11 10 8 10 14 11 9 7 8 8 5 7 9 11 15 14 11 15 19 23 27 28 29
9 6 4 4 2 5 3 4 4 15 12 12 16 14 10 13 17 10 10 9 8 7 7 12 15 13 15 15 13 7 6 8 10 12 12 13 15 17 21 24 27 30 28 29
5 11 5 4 4 6 3 5 5 6 6 10 14 12 10 13 10 4 9 8 8 11 10 9 13 17 19 16 12 11 13 18 19 18 16 16 19 21 26 28 25 26 31 32
8 4 6 3 4 3 5 5 6 5 4 7 12 13 13 9 5 1 7 6 6 6 9 14 16 18 24 24 22 22 21 20 17 17 19 21 23 26 22 26 31 32 32 28
5 4 2 2 5 3 8 7 5 4 6 13 12 9 8 8 8 7 8 9 10 12 19 24 23 23 26 25 23 18 18 18 20 23 24 25 23 25 33 32 29 24 24 24
3 5 4 4 5 7 11 10 7 10 9 8 9 9 9 9 8 9 8 9 10 19 23 23 21 19 21 23 22 18 20 22 22 25 23 24 31 32 26 24 24 23 22 21
7 5 5 9 8 11 10 12 13 12 11 9 10 9 9 8 9 9 8 11 15 19 20 21 22 20 20 23 21 22 23 22 22 21 25 28 26 25 22 23 21 22 21 20
3 5 6 11 13 15 14 13 11 11 14 12 9 10 9 10 8 8 11 11 16 18 20 20 19 17 18 21 20 20 19 19 21 24 25 22 20 22 23 22 21 22 25 23
3 1 6 3 6 12 9 9 13 13 11 8 9 10 10 12 10 13 9 15 16 16 17 16 16 15 15 18 18 20 19 21 26 22 20 21 22 21 22 22 25 23 25 27
Wind_Direction
214 196 206 217 230 242 234 210 219 189 231 221 154 188 233 267 271 260 242 245 269 281 141 68 48 78 97 90 144 198 225 233 222 213 203 208 215 223 231 236 239 244 234 213
195 221 211 220 231 239 238 238 234 212 227 207 199 221 234 228 237 232 214 228 244 275 286 73 66 44 43 51 64 65 18 321 176 211 215 215 221 228 236 238 235 237 238 209
199 213 206 205 226 227 234 215 216 229 206 182 172 208 211 237 228 248 245 225 239 249 219 106 96 68 50 47 58 49 43 21 293 256 227 229 229 231 247 255 240 236 234 218
210 211 218 206 222 225 233 217 215 243 247 178 195 238 214 210 212 230 253 226 237 213 111 110 77 65 72 61 54 49 43 31 17 286 240 249 287 286 276 274 300 293 221 214
210 204 212 224 213 221 236 246 203 229 222 186 190 132 239 184 206 225 228 224 248 198 136 92 91 81 76 66 54 52 55 51 41 51 55 46 14 360 8 355 11 348 188 220
216 221 199 217 232 221 218 210 2 270 182 189 229 185 251 182 197 209 194 226 226 139 115 108 94 88 89 80 72 65 61 59 62 69 64 55 47 38 32 31 28 46 83 196
217 226 217 207 228 242 225 85 15 336 318 185 219 199 224 194 196 199 156 135 108 106 97 94 90 88 84 94 93 82 72 60 56 55 55 53 52 58 51 45 31 40 39 22
204 227 224 195 194 216 214 148 138 242 203 244 233 240 250 218 194 180 145 144 129 120 115 121 118 115 108 100 97 86 74 64 56 51 43 42 39 37 41 37 30 26 20 20
185 230 221 212 184 196 222 176 176 107 358 21 329 334 333 159 154 150 148 140 146 148 136 140 138 130 128 120 114 105 84 66 57 42 33 27 28 22 17 9 7 10 4 353
239 211 272 203 187 227 141 194 170 152 162 282 319 287 278 120 139 146 139 142 132 129 120 138 132 145 154 148 127 107 103 107 83 54 23 14 6 359 355 349 347 342 341 344
202 118 257 263 193 180 150 5 44 139 148 132 97 270 291 8 182 134 123 122 124 139 156 150 162 166 165 142 129 122 98 41 74 51 36 16 2 349 341 338 336 333 329 326
158 117 281 255 65 70 214 173 170 125 275 109 86 257 220 48 349 152 134 131 134 116 100 91 116 106 118 132 140 137 122 71 68 41 23 8 359 347 341 336 330 324 318 315
167 136 53 289 22 10 295 174 198 144 126 150 168 217 95 101 256 327 104 87 96 123 108 101 121 145 149 135 120 105 85 57 52 23 5 353 345 341 337 330 324 319 314 308
78 55 151 205 324 29 343 267 77 104 70 358 20 94 56 22 256 207 151 125 133 213 180 176 107 78 114 107 104 96 87 74 24 1 348 342 336 331 327 320 315 312 308 301
106 101 108 63 345 357 340 323 158 130 106 110 132 123 179 123 322 246 154 177 140 95 112 139 106 104 113 97 78 57 64 42 26 7 347 334 331 330 324 320 317 314 312 309
41 104 115 168 189 79 282 295 355 5 106 77 50 36 172 175 197 144 128 112 105 86 108 127 85 67 68 49 43 62 63 27 354 337 331 322 321 321 317 317 324 332 330 329
76 128 104 105 104 71 228 281 222 157 165 126 131 189 90 117 103 65 68 70 59 55 58 62 65 61 41 42 38 26 7 337 325 318 317 314 315 315 318 339 343 337 329 322
118 89 80 100 57 104 278 328 162 162 41 138 116 86 83 87 76 65 62 65 54 47 39 38 42 28 26 1 347 325 316 321 322 320 317 317 331 359 340 328 323 321 325 322
118 100 106 108 152 99 104 359 14 104 41 33 81 71 59 97 76 46 57 77 74 61 42 19 4 343 320 300 289 324 353 339 340 349 21 13 357 344 330 329 328 324 320 313
96 132 99 135 156 184 175 54 19 88 52 23 66 59 49 53 69 20 42 40 33 25 7 344 325 321 337 20 25 19 25 49 26 14 7 353 343 339 332 327 322 310 307 304
139 143 165 132 97 29 28 39 326 75 186 52 58 65 60 72 126 93 73 47 352 317 323 4 24 34 41 40 41 51 33 27 6 354 342 338 333 331 326 313 309 309 304 302
115 108 142 78 106 149 287 31 83 158 66 79 66 57 54 48 44 32 29 30 35 30 25 24 28 47 39 37 33 31 21 1 346 339 339 336 332 321 316 314 313 307 301 298
78 141 147 135 137 106 80 108 93 81 86 69 72 48 61 47 35 37 30 27 23 28 37 30 31 23 28 24 24 17 0 350 343 339 337 331 322 322 318 307 305 305 300 293
26 104 122 91 113 110 103 80 78 80 81 69 62 54 53 46 38 32 28 35 34 28 27 22 21 14 6 7 5 356 347 342 340 335 329 326 319 315 311 306 301 296 295 294
163 93 100 105 109 83 78 87 89 75 69 59 47 56 53 50 39 38 46 36 29 22 18 17 16 6 356 353 348 345 344 342 336 328 322 316 312 309 307 303 299 294 290 285
21 167 128 131 125 111 117 94 80 78 74 57 64 56 51 53 47 50 50 40 29 15 13 10 6 351 347 346 342 341 338 333 328 319 317 314 311 308 308 307 308 307 303 307